This is the latest recevied weather packets stored in our database for station/object EA1CUE-WX. If no packets are shown the sender has not sent any weather packets the latest 10 day(s).
| Time | Temp. | Humidity | Pressure | Rain* | Wind** | Luminosity | Snow |
|---|---|---|---|---|---|---|---|
| 1777997026 | 10.56° C | 25% | 1014.1 hPa | 0 mm | - | - | - |
| 1777996726 | 10.56° C | 17% | 1014.1 hPa | 0 mm | - | - | - |
| 1777996426 | 11.11° C | 15% | 1014 hPa | 0 mm | - | - | - |
| 1777996126 | 11.11° C | 6% | 1013.9 hPa | 0 mm | - | - | - |
| 1777995826 | 10.56° C | 15% | 1013.8 hPa | 0 mm | - | - | - |
| 1777995526 | 10.56° C | 5% | 1013.7 hPa | 0 mm | - | - | - |
| 1777995226 | 10.56° C | 1% | 1013.7 hPa | 0 mm | - | - | - |
| 1777994926 | 10° C | 1% | 1013.8 hPa | 0 mm | - | - | - |
| 1777994626 | 8.89° C | 1% | 1013.8 hPa | 0 mm | - | - | - |
| 1777994326 | 8.89° C | 1% | 1013.9 hPa | 0 mm | - | - | - |
| 1777994026 | 9.44° C | 1% | 1013.9 hPa | 0 mm | - | - | - |
| 1777993726 | 9.44° C | 1% | 1013.9 hPa | 0 mm | - | - | - |
| 1777993426 | 9.44° C | 1% | 1013.9 hPa | 0 mm | - | - | - |
| 1777993126 | 10° C | 3% | 1013.9 hPa | 0.25 mm | - | - | - |
| 1777992826 | 10.56° C | 3% | 1014 hPa | 0.51 mm | - | - | - |
| 1777992526 | 10.56° C | 1% | 1014 hPa | 0.51 mm | - | - | - |
| 1777992226 | 11.11° C | 1% | 1014.1 hPa | 0.51 mm | - | - | - |
| 1777991927 | 10.56° C | 1% | 1014.1 hPa | 0.76 mm | - | - | - |
| 1777991626 | 10° C | 1% | 1014.1 hPa | 0.76 mm | - | - | - |
| 1777991326 | 9.44° C | 1% | 1014.1 hPa | 0.76 mm | - | - | - |
| 1777991026 | 8.89° C | 1% | 1014.1 hPa | 0.76 mm | - | - | - |
| 1777990726 | 8.89° C | 1% | 1014.1 hPa | 0.76 mm | - | - | - |
| 1777990426 | 8.89° C | 1% | 1014 hPa | 0.76 mm | - | - | - |
| 1777989826 | 8.33° C | 1% | 1014 hPa | 0.76 mm | - | - | - |
| 1777989526 | 8.89° C | 1% | 1014.1 hPa | 0.51 mm | - | - | - |
* Rain latest hour (hover to see other rain measurements)
** Current wind speed in m/s (hover to see current wind gust speed)